TimeEDT,TemperatureF,Dew PointF,Humidity,Sea Level PressureIn,VisibilityMPH,Wind Direction,Wind SpeedMPH,Gust SpeedMPH,PrecipitationIn,Events,Conditions,WindDirDegrees,DateUTC
12:14 AM,31.6,30.2,94,29.74,0.5,ESE,6.9,-,N/A,Snow,Snow,110,2014-03-22 04:14:00
12:34 AM,31.3,29.8,94,29.75,1.0,ESE,3.5,-,0.01,Snow,Snow,110,2014-03-22 04:34:00
12:54 AM,31.3,29.8,94,29.74,0.8,East,4.6,-,0.01,Snow,Snow,100,2014-03-22 04:54:00
1:13 AM,31.1,29.8,95,29.73,1.2,Calm,Calm,-,0.02,Snow,Light Snow,0,2014-03-22 05:13:00
1:34 AM,31.1,29.8,95,29.73,1.8,Calm,Calm,-,0.04,Snow,Light Snow,0,2014-03-22 05:34:00
1:54 AM,31.1,29.8,95,29.72,4.0,North,4.6,-,0.06,Snow,Light Snow,10,2014-03-22 05:54:00
2:13 AM,31.1,29.8,95,29.71,4.0,North,5.8,-,N/A,Snow,Light Snow,10,2014-03-22 06:13:00
2:34 AM,31.1,29.8,95,29.71,5.0,North,6.9,-,0.02,,Overcast,360,2014-03-22 06:34:00
2:54 AM,30.9,29.3,94,29.71,7.0,North,6.9,-,0.03,,Overcast,10,2014-03-22 06:54:00
3:13 AM,30.9,29.3,94,29.71,7.0,North,5.8,-,N/A,,Overcast,350,2014-03-22 07:13:00
3:34 AM,30.9,29.3,94,29.71,7.0,North,6.9,-,N/A,,Overcast,350,2014-03-22 07:34:00
3:54 AM,30.7,28.8,92,29.71,10.0,North,6.9,-,N/A,,Overcast,350,2014-03-22 07:54:00
4:13 AM,30.6,28.4,92,29.73,10.0,NNW,8.1,-,N/A,,Overcast,340,2014-03-22 08:13:00
4:34 AM,30.6,28.2,91,29.74,10.0,NNW,6.9,-,N/A,,Overcast,340,2014-03-22 08:34:00
4:54 AM,30.6,28.2,91,29.75,10.0,NNW,10.4,-,N/A,,Overcast,340,2014-03-22 08:54:00
5:13 AM,30.6,28.2,91,29.76,10.0,NNW,6.9,-,N/A,,Overcast,330,2014-03-22 09:13:00
5:34 AM,30.2,27.5,90,29.77,10.0,NW,10.4,-,N/A,,Overcast,320,2014-03-22 09:34:00
5:54 AM,30.2,27.5,90,29.79,10.0,NW,11.5,-,N/A,,Overcast,320,2014-03-22 09:54:00
6:13 AM,30.0,27.3,90,29.80,10.0,NW,8.1,-,N/A,,Overcast,320,2014-03-22 10:13:00
6:34 AM,30.0,26.6,87,29.82,10.0,NW,11.5,-,N/A,,Overcast,320,2014-03-22 10:34:00
6:54 AM,29.5,26.6,89,29.82,10.0,NNW,6.9,-,N/A,,Overcast,330,2014-03-22 10:54:00
7:14 AM,27.5,25.0,90,29.84,10.0,West,5.8,-,N/A,,Overcast,280,2014-03-22 11:14:00
7:34 AM,29.3,26.6,90,29.85,10.0,WNW,8.1,-,N/A,,Overcast,300,2014-03-22 11:34:00
7:53 AM,30.0,27.0,88,29.87,10.0,NW,6.9,-,N/A,,Overcast,310,2014-03-22 11:53:00
8:14 AM,30.2,26.6,86,29.88,10.0,NW,5.8,-,N/A,,Overcast,320,2014-03-22 12:14:00
8:34 AM,30.7,27.1,86,29.90,10.0,NW,8.1,-,N/A,,Overcast,320,2014-03-22 12:34:00
8:53 AM,30.7,26.8,85,29.90,10.0,NW,11.5,16.1,N/A,,Overcast,320,2014-03-22 12:53:00
9:14 AM,31.1,26.4,83,29.91,10.0,NNW,10.4,16.1,N/A,,Overcast,330,2014-03-22 13:14:00
9:34 AM,31.6,26.4,81,29.92,10.0,NNW,5.8,9.2,N/A,,Overcast,330,2014-03-22 13:34:00
9:53 AM,32.0,26.6,80,29.93,10.0,NW,9.2,-,N/A,,Overcast,320,2014-03-22 13:53:00
10:14 AM,32.0,27.0,82,29.93,10.0,NNW,9.2,-,N/A,,Overcast,330,2014-03-22 14:14:00
10:34 AM,33.3,27.0,78,29.94,10.0,NW,3.5,-,N/A,,Overcast,320,2014-03-22 14:34:00
10:53 AM,33.8,27.1,77,29.95,10.0,NW,11.5,-,N/A,,Overcast,310,2014-03-22 14:53:00
11:14 AM,34.2,28.0,78,29.96,10.0,WNW,11.5,18.4,N/A,,Overcast,300,2014-03-22 15:14:00
11:34 AM,35.1,28.2,76,29.96,10.0,WNW,10.4,-,N/A,,Overcast,300,2014-03-22 15:34:00
11:53 AM,36.9,27.5,69,29.96,10.0,WNW,9.2,-,N/A,,Mostly Cloudy,290,2014-03-22 15:53:00
12:14 PM,37.0,27.3,68,29.97,10.0,WNW,11.5,17.3,N/A,,Mostly Cloudy,300,2014-03-22 16:14:00
12:34 PM,36.1,28.4,73,29.98,10.0,WNW,18.4,21.9,N/A,,Overcast,290,2014-03-22 16:34:00
12:53 PM,35.6,27.9,73,29.98,10.0,WNW,17.3,-,N/A,,Overcast,290,2014-03-22 16:53:00
1:14 PM,33.8,28.0,79,30.00,10.0,WNW,15.0,24.2,N/A,Snow,Light Snow,290,2014-03-22 17:14:00
1:34 PM,33.8,27.0,76,30.01,10.0,WNW,16.1,23.0,N/A,,Overcast,300,2014-03-22 17:34:00
1:53 PM,32.9,23.7,69,30.02,10.0,West,17.3,23.0,N/A,,Overcast,280,2014-03-22 17:53:00
2:14 PM,32.7,21.7,64,30.02,10.0,NW,17.3,25.3,N/A,,Overcast,310,2014-03-22 18:14:00
2:34 PM,33.1,21.2,62,30.02,10.0,WNW,18.4,21.9,N/A,,Overcast,300,2014-03-22 18:34:00
2:53 PM,33.8,19.9,57,30.02,10.0,WNW,18.4,25.3,N/A,,Mostly Cloudy,300,2014-03-22 18:53:00
3:14 PM,34.0,18.3,53,30.03,10.0,WNW,23.0,27.6,N/A,,Scattered Clouds,290,2014-03-22 19:14:00
3:34 PM,33.8,17.2,51,30.03,10.0,WNW,19.6,29.9,N/A,,Clear,290,2014-03-22 19:34:00
3:53 PM,32.9,16.5,51,30.03,10.0,WNW,23.0,27.6,N/A,,Clear,300,2014-03-22 19:53:00
4:14 PM,32.7,15.4,49,30.04,10.0,NW,17.3,23.0,N/A,,Clear,310,2014-03-22 20:14:00
4:34 PM,32.0,12.0,44,30.05,10.0,NW,23.0,28.8,N/A,,Clear,310,2014-03-22 20:34:00
4:54 PM,31.3,10.9,43,30.06,10.0,WNW,15.0,19.6,N/A,,Clear,300,2014-03-22 20:54:00
5:14 PM,30.9,10.0,42,30.07,10.0,NW,12.7,19.6,N/A,,Clear,320,2014-03-22 21:14:00
5:34 PM,30.0,9.9,43,30.08,10.0,WNW,16.1,21.9,N/A,,Clear,300,2014-03-22 21:34:00
5:54 PM,29.5,9.5,43,30.09,10.0,WNW,16.1,21.9,N/A,,Clear,290,2014-03-22 21:54:00
6:14 PM,28.6,8.4,43,30.10,10.0,WNW,15.0,25.3,N/A,,Clear,290,2014-03-22 22:14:00
6:34 PM,28.0,8.2,43,30.11,10.0,WNW,15.0,24.2,N/A,,Clear,290,2014-03-22 22:34:00
6:54 PM,27.1,7.5,44,30.12,10.0,WNW,12.7,19.6,N/A,,Clear,300,2014-03-22 22:54:00
7:14 PM,25.9,7.7,46,30.13,10.0,WNW,12.7,19.6,N/A,,Clear,300,2014-03-22 23:14:00
7:33 PM,24.8,7.3,48,30.13,10.0,WNW,12.7,-,N/A,,Clear,300,2014-03-22 23:33:00
7:54 PM,23.9,7.2,49,30.14,10.0,WNW,16.1,20.7,N/A,,Clear,300,2014-03-22 23:54:00
8:14 PM,22.8,7.3,52,30.15,10.0,WNW,9.2,12.7,N/A,,Clear,300,2014-03-23 00:14:00
8:33 PM,21.7,5.2,49,30.17,10.0,NW,12.7,20.7,N/A,,Clear,310,2014-03-23 00:33:00
8:54 PM,21.0,4.8,50,30.19,10.0,NW,9.2,-,N/A,,Clear,310,2014-03-23 00:54:00
9:14 PM,20.1,5.2,52,30.20,10.0,WNW,12.7,-,N/A,,Clear,300,2014-03-23 01:14:00
9:33 PM,19.9,5.2,53,30.20,10.0,NW,13.8,17.3,N/A,,Clear,310,2014-03-23 01:33:00
9:54 PM,19.2,5.2,54,30.21,10.0,NW,15.0,18.4,N/A,,Clear,310,2014-03-23 01:54:00
10:14 PM,18.5,5.0,56,30.22,10.0,WNW,10.4,-,N/A,,Clear,300,2014-03-23 02:14:00
10:33 PM,18.1,5.0,57,30.23,10.0,NW,10.4,17.3,N/A,,Clear,310,2014-03-23 02:33:00
10:54 PM,17.4,5.0,58,30.24,10.0,NW,11.5,18.4,N/A,,Clear,320,2014-03-23 02:54:00
11:14 PM,16.7,3.9,57,30.24,10.0,NW,11.5,-,N/A,,Clear,320,2014-03-23 03:14:00
11:33 PM,15.8,3.4,58,30.25,10.0,NNW,10.4,-,N/A,,Clear,330,2014-03-23 03:33:00
11:54 PM,14.7,3.0,60,30.26,10.0,NW,11.5,-,N/A,,Clear,320,2014-03-23 03:54:00